Morris, IL

6:04 PM CST on January 23, 2018 (GMT -0600)
Morris

Weather History for KC09 - February, 2013

Change the Weather History Date:

Sunday, February 10, 2013

  Actual Average (KARR) Record (KARR)
Temperature  
Mean Temperature 41 °F -  
Max Temperature 48 °F 32 °F 60 °F (2009)
Min Temperature 34 °F 17 °F -21 °F (2014)
Degree Days  
Heating Degree Days 24    
Moisture  
Dew Point 39 °F    
Average Humidity 94    
Maximum Humidity 100    
Minimum Humidity 66    
Precipitation  
Precipitation 0.20 in - - ()
Sea Level Pressure  
Sea Level Pressure 29.74 in    
Wind  
Wind Speed 14 mph (SSE)    
Max Wind Speed 26 mph    
Max Gust Speed 37 mph    
Visibility 8 miles    
Events Rain    
Averages and records for this station are not official NWS values.
T = Trace of Precipitation, MM = Missing Value Source: NWS Daily Summary

Daily Weather History Graph

Daily Weather History Graph

Search for Another Location

Airport or City:

Trip Planner

Search our weather history database for the weather conditions in past years. The results will help you decide how hot, cold, wet, or windy it might be!

Date:

Astronomy

Feb. 10, 2013 Rise Set
Actual Time 6:54 AM CST 5:21 PM CST
Civil Twilight 6:26 AM CST 5:50 PM CST
Nautical Twilight 5:53 AM CST 6:22 PM CST
Astronomical Twilight 5:21 AM CST 6:55 PM CST
Moon 6:43 AM CST (2/10) 6:13 PM CST (2/10)
Length of Visible Light 11h 24m
Length of Day
10h 26m
New Moon, 0% of the Moon is Illuminated
Feb 10
New Moon
Feb 17
First Quarter
Feb 25
Full
Mar 4
Last Quarter
Mar 11
New

Hourly Weather History & Observations

Time (CST) Temp. Windchill Dew Point Humidity Pressure Visibility Wind Dir Wind Speed Gust Speed Precip Events Conditions
12:15 AM 34.5 °F 25.7 °F 28.2 °F 78% 30.06 in 10.0 mi SSE 12.7 mph - N/A   Clear
12:35 AM 34.7 °F 26.9 °F 28.4 °F 78% 30.06 in 10.0 mi SSE 10.4 mph - N/A   Clear
12:55 AM 34.7 °F 26.4 °F 28.8 °F 79% 30.06 in 10.0 mi SSE 11.5 mph - N/A   Scattered Clouds
1:15 AM 34.3 °F 27.0 °F 28.4 °F 79% 30.06 in 10.0 mi SSE 9.2 mph - N/A   Scattered Clouds
1:35 AM 34.7 °F 27.5 °F 28.9 °F 79% 30.05 in 10.0 mi SSE 9.2 mph - N/A   Overcast
1:55 AM 34.9 °F 27.1 °F 28.8 °F 78% 30.05 in 10.0 mi SSE 10.4 mph - N/A   Overcast
2:15 AM 35.2 °F 27.6 °F 28.8 °F 77% 30.04 in 10.0 mi SSE 10.4 mph - N/A   Overcast
2:35 AM 35.4 °F 27.8 °F 28.9 °F 77% 30.04 in 10.0 mi SSE 10.4 mph - N/A   Overcast
2:55 AM 35.1 °F 27.9 °F 29.1 °F 79% 30.02 in 10.0 mi SSE 9.2 mph - N/A   Overcast
3:15 AM 35.1 °F 27.4 °F 29.3 °F 80% 30.01 in 10.0 mi SSE 10.4 mph - N/A   Overcast
3:35 AM 35.1 °F 27.4 °F 29.7 °F 81% 29.99 in 10.0 mi SSE 10.4 mph - N/A   Scattered Clouds
3:55 AM 35.2 °F 28.1 °F 30.2 °F 82% 29.99 in 10.0 mi SSE 9.2 mph - N/A   Mostly Cloudy
4:15 AM 35.6 °F 29.2 °F 31.1 °F 84% 29.99 in 10.0 mi SSE 8.1 mph - N/A   Light Drizzle
4:35 AM 35.8 °F 28.3 °F 32.0 °F 86% 29.99 in 10.0 mi SSE 10.4 mph - N/A Rain Light Rain
4:55 AM 35.8 °F 27.8 °F 32.0 °F 86% 29.98 in 10.0 mi SSE 11.5 mph - N/A Rain Light Rain
5:15 AM 35.6 °F 29.2 °F 32.0 °F 87% 29.98 in 7.0 mi SSE 8.1 mph - N/A Rain Light Rain
5:35 AM 35.4 °F 27.8 °F 34.0 °F 94% 29.97 in 5.0 mi SSE 10.4 mph 16.1 mph N/A Rain Light Rain
5:55 AM 35.1 °F 27.9 °F 35.1 °F 100% 29.95 in 7.0 mi SE 9.2 mph - N/A Rain Light Rain
6:15 AM 35.1 °F 29.3 °F 35.1 °F 100% 29.93 in 7.0 mi SE 6.9 mph - N/A   Overcast
6:35 AM 35.6 °F 29.9 °F 35.6 °F 100% 29.91 in 5.0 mi SE 6.9 mph - N/A   Light Drizzle
6:55 AM 35.6 °F 29.2 °F 35.6 °F 100% 29.90 in 4.0 mi ESE 8.1 mph - N/A   Overcast
7:15 AM 36.0 °F 28.5 °F 36.0 °F 100% 29.89 in 5.0 mi SE 10.4 mph - N/A   Overcast
7:35 AM 36.1 °F 28.7 °F 36.1 °F 100% 29.90 in 4.0 mi SE 10.4 mph - N/A   Overcast
7:55 AM 36.5 °F 28.7 °F 36.5 °F 100% 29.89 in 4.0 mi SE 11.5 mph - N/A Rain Light Rain
8:15 AM 37.4 °F 28.2 °F 37.4 °F 100% 29.89 in 2.5 mi SE 16.1 mph 23.0 mph 0.01 in Rain Rain
8:35 AM 37.9 °F 28.5 °F 37.8 °F 99% 29.87 in 7.0 mi SE 17.3 mph 24.2 mph 0.01 in Rain Rain
8:55 AM 37.8 °F 28.0 °F 37.8 °F 100% 29.85 in 5.0 mi SE 18.4 mph - 0.02 in Rain Light Rain
9:15 AM 37.8 °F 29.8 °F 37.8 °F 100% 29.84 in 7.0 mi SE 12.7 mph 21.9 mph N/A Rain Light Rain
9:35 AM 37.9 °F 29.6 °F 37.9 °F 100% 29.84 in 5.0 mi SE 13.8 mph - 0.01 in Rain Rain
9:55 AM 38.7 °F 29.1 °F 38.7 °F 100% 29.81 in 5.0 mi SE 18.4 mph 24.2 mph 0.03 in Rain Rain
10:15 AM 39.0 °F 29.9 °F 39.0 °F 100% 29.80 in 5.0 mi SE 17.3 mph 24.2 mph 0.01 in Rain Light Rain
10:35 AM 39.9 °F 30.8 °F 39.6 °F 99% 29.78 in 4.0 mi SE 18.4 mph 23.0 mph 0.04 in Rain Rain
10:55 AM 40.1 °F 31.6 °F 39.9 °F 99% 29.77 in 7.0 mi SE 16.1 mph - 0.06 in Rain Light Rain
11:15 AM 40.5 °F 30.7 °F 40.1 °F 99% 29.75 in 7.0 mi SE 21.9 mph 26.5 mph 0.02 in Rain Light Rain
11:35 AM 40.5 °F 31.5 °F 40.5 °F 100% 29.73 in 7.0 mi SSE 18.4 mph 26.5 mph 0.03 in Rain Light Rain
11:55 AM 40.3 °F 30.4 °F 40.3 °F 100% 29.70 in 4.0 mi SSE 21.9 mph 28.8 mph 0.05 in Rain Rain
12:15 PM 41.0 °F 32.2 °F 41.0 °F 100% 29.68 in 7.0 mi SSE 18.4 mph 27.6 mph 0.01 in Rain Light Rain
12:35 PM 41.5 °F 32.4 °F 41.5 °F 100% 29.66 in 4.0 mi SSE 20.7 mph 26.5 mph 0.02 in Rain Rain
12:55 PM 42.4 °F 33.5 °F 42.4 °F 100% 29.65 in 5.0 mi South 20.7 mph 26.5 mph 0.03 in Rain Rain
1:15 PM 43.7 °F 35.0 °F 43.7 °F 100% 29.61 in 7.0 mi SSE 21.9 mph 28.8 mph 0.01 in Rain Light Rain
1:35 PM 43.9 °F 35.2 °F 43.9 °F 100% 29.59 in 10.0 mi SSE 21.9 mph 31.1 mph 0.01 in   Overcast
1:55 PM 44.6 °F 36.6 °F 44.6 °F 100% 29.59 in 10.0 mi SSE 19.6 mph 29.9 mph N/A   Unknown
2:15 PM 44.8 °F 36.2 °F 44.8 °F 100% 29.58 in 10.0 mi South 23.0 mph 31.1 mph N/A   Overcast
2:35 PM 45.5 °F 36.9 °F 45.5 °F 100% 29.57 in 10.0 mi South 24.2 mph 34.5 mph N/A   Overcast
2:55 PM 45.5 °F 37.3 °F 45.5 °F 100% 29.56 in 10.0 mi South 21.9 mph 33.4 mph N/A   Overcast
3:15 PM 45.9 °F 37.6 °F 45.9 °F 100% 29.56 in 10.0 mi South 23.0 mph 33.4 mph N/A   Overcast
3:35 PM 45.7 °F 37.4 °F 45.7 °F 100% 29.55 in 10.0 mi South 23.0 mph 31.1 mph N/A   Overcast
3:55 PM 45.9 °F 37.6 °F 45.9 °F 100% 29.54 in 5.0 mi South 23.0 mph 34.5 mph N/A   Overcast
4:15 PM 45.7 °F 37.1 °F 45.7 °F 100% 29.54 in 4.0 mi South 24.2 mph 31.1 mph N/A   Overcast
4:35 PM 45.5 °F 37.3 °F 45.5 °F 100% 29.53 in 2.5 mi South 21.9 mph 31.1 mph N/A   Drizzle
4:55 PM 45.9 °F 38.0 °F 45.9 °F 100% 29.54 in 7.0 mi South 20.7 mph 29.9 mph N/A   Overcast
5:15 PM 46.4 °F 38.3 °F 46.4 °F 100% 29.54 in 10.0 mi South 23.0 mph 28.8 mph N/A   Overcast
5:35 PM 46.8 °F - 46.8 °F 100% 29.53 in 10.0 mi South 23.0 mph 31.1 mph N/A   Overcast
5:55 PM 47.3 °F - 47.3 °F 100% 29.53 in 10.0 mi South 23.0 mph 32.2 mph N/A   Overcast
6:15 PM 47.3 °F - 47.3 °F 100% 29.53 in 10.0 mi South 18.4 mph 32.2 mph N/A   Overcast
6:35 PM 47.5 °F - 47.5 °F 100% 29.52 in 10.0 mi South 20.7 mph 28.8 mph N/A   Overcast
6:55 PM 47.5 °F - 47.5 °F 100% 29.52 in 10.0 mi South 19.6 mph 25.3 mph N/A   Overcast
7:15 PM 47.7 °F - 47.7 °F 100% 29.51 in 10.0 mi South 21.9 mph 27.6 mph N/A   Overcast
7:35 PM 48.2 °F - 48.2 °F 100% 29.50 in 10.0 mi South 21.9 mph 29.9 mph N/A   Overcast
7:55 PM 47.8 °F - 47.8 °F 100% 29.50 in 10.0 mi South 24.2 mph 32.2 mph N/A   Mostly Cloudy
8:15 PM 47.8 °F - 47.8 °F 100% 29.50 in 10.0 mi South 23.0 mph 31.1 mph N/A   Mostly Cloudy
8:35 PM 47.3 °F - 47.3 °F 100% 29.50 in 10.0 mi SSW 23.0 mph 28.8 mph N/A   Scattered Clouds
8:55 PM 47.1 °F - 47.1 °F 100% 29.51 in 10.0 mi SSW 18.4 mph 29.9 mph N/A   Clear
9:15 PM 46.8 °F - 46.8 °F 100% 29.51 in 10.0 mi SSW 18.4 mph 25.3 mph N/A   Clear
9:35 PM 46.6 °F - 46.6 °F 100% 29.52 in 10.0 mi SW 20.7 mph 26.5 mph N/A   Clear
9:55 PM 46.8 °F - 46.2 °F 98% 29.52 in 10.0 mi SW 19.6 mph 26.5 mph N/A   Clear
10:15 PM 46.6 °F - 45.7 °F 97% 29.52 in 10.0 mi SW 18.4 mph 24.2 mph N/A   Clear
10:35 PM 45.3 °F 38.4 °F 45.1 °F 99% 29.53 in 10.0 mi SW 16.1 mph - N/A   Clear
10:55 PM 44.4 °F 38.2 °F 42.8 °F 94% 29.53 in 10.0 mi SW 12.7 mph - N/A   Clear
11:15 PM 44.6 °F 36.6 °F 38.5 °F 79% 29.53 in 10.0 mi WSW 19.6 mph 27.6 mph N/A   Scattered Clouds
11:35 PM 44.6 °F 36.9 °F 35.2 °F 70% 29.53 in 10.0 mi WSW 18.4 mph 26.5 mph N/A   Overcast
11:55 PM 44.6 °F 35.3 °F 33.8 °F 66% 29.53 in 10.0 mi WSW 26.5 mph 36.8 mph N/A   Overcast